Home > Weather > Meppen > Past weeks

Flag for Germany Past Weather in Meppen, Lower Saxony, Germany — Yesterday and Last 2 Weeks

Now
49 °F

Fog.


Feels Like: 49 °F
Forecast: 57 / 66 °F
Wind: No wind

Location: Meppen

Current Time: Jun 28, 2016 at 8:00:46 AM

Latest Report: Jun 28, 2016 at 7:00 AM


Visibility: 25 mi

Pressure: 30.09 "Hg

Humidity: 96%

Dew Point: 48 °F

Location of MeppenLocation

Past Weather in Meppen — Graph

°F

Meppen Temperature Yesterday

Maximum temperature yesterday: 64 °F (at 1:00 PM)
Minimum temperature yesterday: 54 °F (at 4:00 AM)
Average temperature yesterday: 58 °F

High & Low Weather Summary for the Past Weeks

 TemperatureHumidityPressure
High85 °F (Jun 23, 6:00 PM)96% (Jun 28, 6:00 AM)30.24 "Hg (Jun 28, 6:00 AM)
Low48 °F (Jun 28, 6:00 AM)44% (Jun 19, 6:00 PM)29.41 "Hg (Jun 14, 6:00 PM)
Average62 °F79%29.90 "Hg
* Reported Jun 13 7:00 AM — Jun 28 7:00 AM, Meppen, Weather by CustomWeather, © 2016

Note: Actual official high and low records may vary slightly from our data, if they occured in-between our weather recording intervals... More about our weather records

Advertising

Meppen Weather History for the Previous 24 Hours

Scroll right to see more
 ConditionsComfort  
Time TempWeatherWind HumidityBarometerVisibility
7:00 AM
Tue, Jun 28
49 °FFog.No wind96%30.09 "Hg25 mi
6:00 AM48 °FFog.1 mph96%30.09 "Hg22 mi
4:00 AM49 °FCool.1 mph95%30.09 "Hg1 mi
3:00 AM49 °FCool.1 mph94%30.09 "Hg1 mi
1:00 AM50 °FCool.1 mph94%30.09 "Hg1 mi
12:00 AM51 °FCool.1 mph94%30.08 "Hg2 mi
10:00 PM
Mon, Jun 27
56 °FCool.1 mph84%30.05 "Hg6 mi
9:00 PM61 °FCool.1 mph80%30.04 "Hg6 mi
7:00 PM63 °FMild.2 mph87%30.01 "Hg6 mi
6:00 PM61 °FCool.2 mph90%30.01 "Hg2 mi
4:00 PM62 °FRain. Overcast.3 mph80%30.01 "Hg4 mi
3:00 PM62 °FOvercast.3 mph75%30.01 "Hg25 mi
1:00 PM64 °FOvercast.3 mph68%30.01 "Hg22 mi
12:00 PM63 °FOvercast.3 mph72%30.01 "Hg22 mi
10:00 AM58 °FLow clouds.3 mph84%30.02 "Hg10 mi
9:00 AM57 °FLow clouds.3 mph88%30.01 "Hg9 mi
Weather by CustomWeather, © 2016

See weather overviewHow to use our weather pages